Find Starlink 30138

NORAD ID: 57605 Int'l Des: 2023-119 Owner: SPXS Country: US Constellation: starlink operational
LEOCIRCULAR

現在のビュー

3D地球を読み込み中...

About Starlink 30138

Starlink 30138 (NORAD 57605) is a starlink constellation satellite (v2 mini) launched Aug 11, 2023 by SPXS of US. It operates in LEO, CIRCULAR orbit with a mass of 730.00 kg.

次回通過

Passes for default location (London). Set your location on the main map for personalized predictions.

高度履歴

Loading altitude history...

軌道要素

1 57605U 23119D 26262.74844553 .00000336 00000-0 21750-4 0 9998
2 57605 43.0016 65.7709 0001598 270.7309 89.3359 15.27572830172764
Epoch: Sep 19, 2026 • Age: 23 hours

現在のステータス

高度 489.5 km
遠地点 / 近地点 N/A
速度 7.62 km/s
衛星直下点 -27.41°S, 20.84°E
打ち上げ日 Aug 11, 2023
運用期間 3.1 years
タイプ internet

技術仕様

分類 Payload
質量 730.00 kg
乾燥質量 700.00 kg
長さ 0.30 m
スパン 29.00 m
形状 ? Box + pan
製造者 SPXS
バスタイプ Starlink V2M
フェーズステータス In Orbit
所有者/国 SPXS/US

Most Searched